Location: Brunembert
(50.7122°N, 1.8935°E)
Time: 13:22:55
(UTC+00:00)

RESURS DK-1 - Visible Passes

Search period start: 31 July 2021 00:00
Search period end: 10 August 2021 00:00
Orbit: 554 x 563 km, 69.9° (Epoch: 30 July)

Date Brightness Start Highest point End Pass type
(mag) Time Alt. Az. Time Alt. Az. Time Alt. Az.
31 Jul 6.1 02:26:08 10° N 02:27:30 11° NNE 02:28:52 10° NE visible
31 Jul 5.3 21:22:23 10° W 21:25:35 21° NW 21:28:48 10° N visible
01 Aug 5.9 02:23:45 10° N 02:25:46 13° NNE 02:27:46 10° ENE visible
01 Aug 5.6 21:20:55 10° W 21:23:48 18° NW 21:26:42 10° N visible
02 Aug 5.8 02:21:31 10° N 02:24:01 15° NE 02:26:29 10° ENE visible
02 Aug 5.8 21:19:31 10° WNW 21:22:01 15° NW 21:24:32 10° N visible
03 Aug 5.6 02:19:22 10° N 02:22:14 18° NE 02:25:06 10° E visible
03 Aug 5.9 21:18:14 10° WNW 21:20:16 13° NNW 21:22:18 10° N visible
04 Aug 5.2 02:17:15 10° N 02:20:26 21° NE 02:23:37 10° E visible
04 Aug 6.0 21:17:07 10° NW 21:18:31 11° NNW 21:19:56 10° N visible
05 Aug 4.9 02:15:10 10° NNW 02:18:38 25° NE 02:22:04 10° E visible
06 Aug 4.5 02:13:06 10° NNW 02:16:47 30° NE 02:20:27 10° ESE visible
07 Aug 4.0 02:11:04 10° NNW 02:14:56 36° NE 02:18:46 10° ESE visible
08 Aug 5.7 00:32:43 10° NNE 00:33:57 11° NNE 00:35:12 10° NE visible
08 Aug 3.5 02:09:03 10° NNW 02:13:04 45° NE 02:17:02 10° SE visible
08 Aug 3.5 03:47:30 10° NW 03:50:51 24° WSW 03:54:11 10° SSW visible
09 Aug 5.5 00:30:18 10° N 00:32:13 13° NNE 00:34:08 10° ENE visible
09 Aug 3.0 02:07:04 10° NNW 02:11:10 57° NE 02:15:13 10° SE visible
09 Aug 3.8 03:45:52 10° WNW 03:48:48 19° WSW 03:51:43 10° SSW visible
